Location: La Fredeussais
(48.1780°N, 1.3980°W)
Time: 11:17:36
(UTC+00:00)

PRISM - Pass Details

Date: 01 November 2021
Orbit: 561 x 584 km, 98.2° (Epoch: 29 November)

Event Time Altitude Azimuth Distance (km) Brightness Sun altitude
Rises 05:32:44 0° 358° (N) 2,794 ? -13.5°
Reaches altitude 10° 05:35:39 10° 336° (NNW) 1,885 ? -13.0°
Enters shadow 05:37:21 15° 311° (NW) 1,597 ? -12.7°
